Location: Boiro
(42.6475°N, 8.8834°W)
Time: 20:36:59
(UTC+02:00)

UKube-1 - Pass Details

Date: 03 May 2024
Orbit: 584 x 591 km, 98.3° (Epoch: 19 May)

Event Time Altitude Azimuth Distance (km) Brightness Sun altitude
Rises 05:10:51 0° 350° (N) 2,830 ? -21.1°
Reaches altitude 10° 05:15:12 10° 306° (NW) 1,918 ? -20.6°
Maximum altitude 05:15:38 10° 300° (WNW) 1,907 ? -20.6°
Enters shadow 05:15:46 10° 298° (WNW) 1,908 ? -20.5°
